Weslaco, TX

3:50 PM CST on February 24, 2017 (GMT -0600)
Weslaco

Weather History for KT65 - April, 2013

Change the Weather History Date:

Monday, April 8, 2013

  Actual Average (KMFE) Record (KMFE)
Temperature  
Mean Temperature 78 °F -  
Max Temperature 87 °F 82 °F 106 °F (1989)
Min Temperature 70 °F 63 °F 40 °F (1944)
Cooling Degree Days 14    
Growing Degree Days 28 (Base 50)    
Moisture  
Dew Point 66 °F    
Average Humidity 70    
Maximum Humidity 84    
Minimum Humidity 48    
Precipitation  
Precipitation 0.00 in - - ()
Sea Level Pressure  
Sea Level Pressure 29.71 in    
Wind  
Wind Speed 15 mph (SSE)    
Max Wind Speed 21 mph    
Max Gust Speed 30 mph    
Visibility 9 miles    
Events      
Averages and records for this station are not official NWS values.
T = Trace of Precipitation, MM = Missing Value Source: NWS Daily Summary

Daily Weather History Graph

Daily Weather History Graph

Search for Another Location

Airport or City:

Trip Planner

Search our weather history database for the weather conditions in past years. The results will help you decide how hot, cold, wet, or windy it might be!

Date:

Astronomy

Apr. 08, 2013 Rise Set
Actual Time 7:15 AM CDT 7:52 PM CDT
Civil Twilight 6:51 AM CDT 8:15 PM CDT
Nautical Twilight 6:24 AM CDT 8:43 PM CDT
Astronomical Twilight 5:56 AM CDT 9:11 PM CDT
Moon 5:57 AM CDT (4/8) 6:33 PM CDT (4/8)
Length of Visible Light 13h 23m
Length of Day
12h 36m
Waning Crescent, 3% of the Moon is Illuminated
Apr 8
Waning Crescent
Apr 10
New
Apr 18
First Quarter
Apr 25
Full
May 2
Last Quarter

Hourly Weather History & Observations

Time (CDT) Temp. Heat Index Dew Point Humidity Pressure Visibility Wind Dir Wind Speed Gust Speed Precip Events Conditions
12:15 AM 72.9 °F - 65.3 °F 77% 29.81 in 10.0 mi SE 15.0 mph 23.0 mph N/A   Overcast
12:35 AM 72.9 °F - 65.3 °F 77% 29.82 in 10.0 mi SSE 13.8 mph - N/A   Overcast
12:55 AM 72.5 °F - 65.3 °F 78% 29.81 in 10.0 mi SE 13.8 mph 17.3 mph N/A   Mostly Cloudy
1:15 AM 72.1 °F - 65.3 °F 79% 29.80 in 10.0 mi SE 12.7 mph 18.4 mph N/A   Mostly Cloudy
1:35 AM 72.1 °F - 65.5 °F 79% 29.79 in 10.0 mi SE 15.0 mph 21.9 mph N/A   Clear
1:55 AM 72.0 °F - 65.5 °F 80% 29.78 in 10.0 mi SSE 13.8 mph 19.6 mph N/A   Scattered Clouds
2:15 AM 71.6 °F - 65.5 °F 81% 29.78 in 10.0 mi SSE 12.7 mph 18.4 mph N/A   Mostly Cloudy
2:35 AM 71.2 °F - 65.5 °F 82% 29.77 in 10.0 mi SSE 15.0 mph 21.9 mph N/A   Mostly Cloudy
2:55 AM 71.1 °F - 65.3 °F 82% 29.75 in 10.0 mi SSE 16.1 mph 20.7 mph N/A   Scattered Clouds
3:15 AM 70.9 °F - 65.3 °F 82% 29.75 in 10.0 mi SSE 13.8 mph 19.6 mph N/A   Clear
3:35 AM 70.9 °F - 65.3 °F 82% 29.75 in 10.0 mi SSE 12.7 mph 19.6 mph N/A   Clear
3:55 AM 70.9 °F - 65.3 °F 82% 29.73 in 10.0 mi SSE 13.8 mph 18.4 mph N/A   Clear
4:15 AM 70.9 °F - 65.5 °F 83% 29.73 in 10.0 mi SSE 16.1 mph - N/A   Scattered Clouds
4:35 AM 70.7 °F - 65.5 °F 83% 29.72 in 10.0 mi SSE 12.7 mph - N/A   Mostly Cloudy
4:55 AM 70.7 °F - 65.5 °F 83% 29.71 in 10.0 mi SSE 13.8 mph 17.3 mph N/A   Overcast
5:15 AM 70.7 °F - 65.7 °F 84% 29.71 in 10.0 mi SSE 12.7 mph - N/A   Overcast
5:35 AM 71.1 °F - 65.8 °F 84% 29.71 in 10.0 mi SSE 9.2 mph - N/A   Overcast
5:55 AM 71.6 °F - 66.2 °F 83% 29.72 in 10.0 mi SSE 12.7 mph - N/A   Overcast
6:15 AM 71.6 °F - 65.8 °F 82% 29.72 in 10.0 mi SSE 11.5 mph 18.4 mph N/A   Overcast
6:35 AM 71.6 °F - 65.8 °F 82% 29.72 in 10.0 mi SSE 13.8 mph 19.6 mph N/A   Overcast
6:55 AM 72.0 °F - 65.8 °F 81% 29.73 in 10.0 mi SSE 12.7 mph - N/A   Overcast
7:15 AM 72.3 °F - 65.8 °F 80% 29.73 in 10.0 mi SSE 17.3 mph 23.0 mph N/A   Overcast
7:35 AM 72.1 °F - 65.8 °F 80% 29.73 in 10.0 mi SSE 13.8 mph 19.6 mph N/A   Overcast
7:55 AM 72.1 °F - 66.0 °F 81% 29.74 in 10.0 mi SSE 12.7 mph - N/A   Overcast
8:15 AM 72.7 °F - 66.2 °F 80% 29.74 in 10.0 mi SSE 12.7 mph 18.4 mph N/A   Scattered Clouds
8:35 AM 74.7 °F - 66.2 °F 75% 29.75 in 10.0 mi SSE 12.7 mph 17.3 mph N/A   Mostly Cloudy
8:55 AM 74.3 °F - 66.2 °F 76% 29.75 in 10.0 mi SSE 12.7 mph 24.2 mph N/A   Overcast
9:15 AM 74.7 °F - 66.2 °F 75% 29.76 in 10.0 mi South 18.4 mph 24.2 mph N/A   Overcast
9:35 AM 75.7 °F - 66.2 °F 72% 29.76 in 10.0 mi SSE 12.7 mph - N/A   Overcast
9:55 AM 75.9 °F - 65.8 °F 71% 29.76 in 10.0 mi South 12.7 mph 21.9 mph N/A   Overcast
10:15 AM 76.1 °F - 65.3 °F 69% 29.78 in 10.0 mi South 17.3 mph 21.9 mph N/A   Overcast
10:35 AM 77.0 °F - 65.7 °F 68% 29.78 in 10.0 mi SSE 16.1 mph 20.7 mph N/A   Overcast
10:55 AM 77.9 °F - 66.2 °F 67% 29.78 in 7.0 mi South 18.4 mph 24.2 mph N/A   Overcast
11:15 AM 77.9 °F - 66.2 °F 67% 29.77 in 7.0 mi SSE 17.3 mph 25.3 mph N/A   Overcast
11:35 AM 78.8 °F - 66.2 °F 65% 29.77 in 10.0 mi South 19.6 mph 25.3 mph N/A   Overcast
11:55 AM 79.9 °F - 66.2 °F 63% 29.76 in 10.0 mi SSE 20.7 mph 27.6 mph N/A   Overcast
12:15 PM 80.6 °F 82.8 °F 66.6 °F 62% 29.75 in 7.0 mi SSE 17.3 mph 26.5 mph N/A   Overcast
12:35 PM 81.1 °F 83.4 °F 66.4 °F 61% 29.75 in 7.0 mi South 16.1 mph 24.2 mph N/A   Overcast
12:55 PM 82.0 °F 84.3 °F 66.6 °F 59% 29.73 in 7.0 mi SSE 17.3 mph 23.0 mph N/A   Overcast
1:15 PM 83.5 °F 86.0 °F 66.7 °F 57% 29.72 in 7.0 mi SSE 19.6 mph 26.5 mph N/A   Overcast
1:35 PM 83.7 °F 86.2 °F 66.9 °F 57% 29.71 in 7.0 mi SSE 17.3 mph 26.5 mph N/A   Overcast
1:55 PM 84.2 °F 86.6 °F 66.6 °F 55% 29.71 in 5.0 mi SSE 18.4 mph 25.3 mph N/A   Haze
2:15 PM 84.2 °F 86.8 °F 66.9 °F 56% 29.70 in 5.0 mi South 18.4 mph 26.5 mph N/A   Haze
2:35 PM 84.2 °F 86.6 °F 66.6 °F 55% 29.69 in 7.0 mi SSE 18.4 mph 25.3 mph N/A   Overcast
2:55 PM 85.6 °F 87.9 °F 66.4 °F 52% 29.68 in 7.0 mi South 19.6 mph 24.2 mph N/A   Overcast
3:15 PM 84.6 °F 86.6 °F 65.8 °F 53% 29.67 in 7.0 mi SSE 17.3 mph 25.3 mph N/A   Mostly Cloudy
3:35 PM 86.0 °F 87.9 °F 65.7 °F 50% 29.66 in 7.0 mi South 20.7 mph 27.6 mph N/A   Scattered Clouds
3:55 PM 87.1 °F 88.9 °F 65.5 °F 48% 29.65 in 7.0 mi SSE 17.3 mph 27.6 mph N/A   Clear
4:15 PM 86.2 °F 88.2 °F 65.7 °F 50% 29.64 in 7.0 mi SE 20.7 mph 28.8 mph N/A   Clear
4:35 PM 86.2 °F 88.4 °F 66.2 °F 51% 29.64 in 7.0 mi SSE 16.1 mph 25.3 mph N/A   Clear
4:55 PM 86.2 °F 88.4 °F 66.2 °F 51% 29.63 in 5.0 mi SSE 19.6 mph 24.2 mph N/A   Haze
5:15 PM 86.0 °F 88.2 °F 66.2 °F 51% 29.62 in 7.0 mi SSE 16.1 mph 27.6 mph N/A   Clear
5:35 PM 84.6 °F 86.8 °F 66.2 °F 54% 29.62 in 7.0 mi SSE 17.3 mph 26.5 mph N/A   Clear
5:55 PM 83.7 °F 85.5 °F 65.7 °F 54% 29.62 in 7.0 mi SSE 18.4 mph 26.5 mph N/A   Clear
6:15 PM 82.8 °F 84.7 °F 65.7 °F 56% 29.62 in 7.0 mi SSE 18.4 mph 25.3 mph N/A   Clear
6:35 PM 81.7 °F 83.6 °F 65.8 °F 58% 29.63 in 7.0 mi SE 17.3 mph 25.3 mph N/A   Clear
6:55 PM 80.4 °F 82.6 °F 66.2 °F 62% 29.63 in 10.0 mi SSE 18.4 mph 28.8 mph N/A   Clear
7:15 PM 79.0 °F - 66.4 °F 65% 29.63 in 7.0 mi SSE 19.6 mph 25.3 mph N/A   Clear
7:35 PM 77.7 °F - 66.4 °F 68% 29.64 in 7.0 mi SSE 19.6 mph 28.8 mph N/A   Clear
7:55 PM 77.2 °F - 66.4 °F 69% 29.65 in 10.0 mi SSE 17.3 mph 25.3 mph N/A   Mostly Cloudy
8:15 PM 77.2 °F - 66.6 °F 70% 29.65 in 10.0 mi SE 18.4 mph 25.3 mph N/A   Overcast
8:35 PM 76.5 °F - 66.6 °F 71% 29.66 in 10.0 mi SSE 20.7 mph 28.8 mph N/A   Overcast
8:55 PM 76.3 °F - 67.1 °F 73% 29.67 in 10.0 mi SSE 20.7 mph 25.3 mph N/A   Overcast
9:15 PM 76.3 °F - 67.3 °F 74% 29.67 in 10.0 mi SSE 17.3 mph 25.3 mph N/A   Overcast
9:35 PM 76.5 °F - 67.5 °F 74% 29.68 in 10.0 mi SSE 18.4 mph 25.3 mph N/A   Overcast
9:55 PM 76.5 °F - 67.5 °F 74% 29.68 in 10.0 mi SSE 18.4 mph 25.3 mph N/A   Overcast
10:15 PM 76.5 °F - 67.6 °F 74% 29.69 in 10.0 mi SSE 17.3 mph 25.3 mph N/A   Overcast
10:35 PM 76.5 °F - 67.6 °F 74% 29.69 in 10.0 mi SSE 17.3 mph 25.3 mph N/A   Overcast
10:55 PM 76.6 °F - 67.8 °F 74% 29.70 in 10.0 mi SSE 18.4 mph 27.6 mph N/A   Overcast
11:15 PM 76.5 °F - 68.0 °F 75% 29.70 in 10.0 mi SSE 20.7 mph 29.9 mph N/A   Overcast
11:35 PM 76.5 °F - 67.8 °F 75% 29.70 in 10.0 mi SSE 16.1 mph 28.8 mph N/A   Overcast
11:55 PM 76.1 °F - 67.1 °F 74% 29.70 in 10.0 mi SSE 16.1 mph 29.9 mph N/A   Overcast